Notices

What's New in latest Release from April 7th, 2021:

- Updated Glossary, including Speed of Maximum Gust, and Total Hourly Precipitation

- Updated national and regional climate services offices contacts and prices information

- Addition of station inventory lists for 1981-2010, 1971-2000, and 1961-1990 Normals.

If you haven't already, please take our survey and provide feedback about our website: https://eccc.sondage-survey.ca/f/LanguageSelection.aspx?s=442ca660-fcf1-47c0-95a9-59707d6fd709

Hourly Data Report for August 31, 2017

TORONTO CITY
ONTARIO

43°40'00.000" N
79°24'00.000" W
112.50 m
6158355
71508
XTO

Download Data

Hourly Data (August 2017)
Hourly Data Report for August 31, 2017
TIME
LST
Temp Definition
°C
Dew Point Definition
°C
Rel Hum Definition
%
Precip. Amount Definition
mm

Wind Dir Definition
10's deg

Wind Spd Definition
km/h
Visibility Definition
km
Stn Press Definition
kPa
Hmdx Definition


Wind Chill Definition


Weather Definition


00:00 19.2 14.7 75 0.0 LegendMM LegendMM   100.07     LegendNANA
01:00 18.6 15.1 80 0.0 LegendMM LegendMM   100.05     LegendNANA
02:00 18.2 15.6 85 0.0 LegendMM LegendMM   100.06     LegendNANA
03:00 16.9 14.2 84 0.6 LegendMM LegendMM   100.12     LegendNANA
04:00 16.2 13.4 83 0.0 LegendMM LegendMM   100.15     LegendNANA
05:00 15.5 12.7 83 0.0 LegendMM LegendMM   100.23     LegendNANA
06:00 15.3 12.3 82 0.0 LegendMM LegendMM   100.32     LegendNANA
07:00 15.8 12.4 80 0.0 LegendMM LegendMM   100.43     LegendNANA
08:00 15.8 10.9 73 0.0 LegendMM LegendMM   100.51     LegendNANA
09:00 16.3 10.3 68 0.0 LegendMM LegendMM   100.56     LegendNANA
10:00 16.1 9.0 63 0.0 LegendMM LegendMM   100.60     LegendNANA
11:00 18.3 6.4 46 0.0 LegendMM LegendMM   100.61     LegendNANA
12:00 18.1 6.2 45 0.0 LegendMM LegendMM   100.60     LegendNANA
13:00 18.7 6.9 46 0.0 LegendMM LegendMM   100.60     LegendNANA
14:00 19.2 6.0 42 0.0 LegendMM LegendMM   100.57     LegendNANA
15:00 18.5 5.0 41 0.0 LegendMM LegendMM   100.57     LegendNANA
16:00 17.8 4.6 42 0.0 LegendMM LegendMM   100.59     LegendNANA
17:00 16.6 4.3 44 0.0 LegendMM LegendMM   100.64     LegendNANA
18:00 16.1 4.4 46 0.0 LegendMM LegendMM   100.65     LegendNANA
19:00 15.2 3.8 47 0.0 LegendMM LegendMM   100.70     LegendNANA
20:00 14.4 3.6 48 0.0 LegendMM LegendMM   100.76     LegendNANA
21:00 13.9 2.8 47 0.0 LegendMM LegendMM   100.84     LegendNANA
22:00 13.1 3.2 51 0.0 LegendMM LegendMM   100.90     LegendNANA
23:00 12.0 3.8 57 0.0 LegendMM LegendMM   100.90     LegendNANA

Notes on Data Quality.

Legend

  • E = Estimated
  • M = Missing
  • NA = Not Available*
  • [empty] = Indicates an unobserved value
Date modified: